Regional Weather Roundup
Issued by NWS

Home | Current Version | Previous Version | Graphics & Text | Print | Product List | Glossary On
Versions: 1 2 3 4 5 6 7 8 9 10 11 12 13 14 15 16 17 18 19 20 21 22 23 24 25 26 27 28 29 30 31 32 33 34 35 36 37 38 39 40 41 42 43 44 45 46 47 48 49 50
000
ASUS43 KIND 260159
RWRIN

WEATHER ROUNDUP FOR INDIANA
NATIONAL WEATHER SERVICE INDIANAPOLIS IN
1000 PM EDT SUN JUN 25 2017

NOTE: "FAIR" INDICATES FEW OR NO CLOUDS BELOW 12,000 FEET WITH NO
SIGNIFICANT WEATHER AND/OR OBSTRUCTIONS TO VISIBILITY.

* - STATION DOES NOT REPORT WEATHER SUCH AS PRECIPITATION OR FOG.

+ - STATION NOT QUALITY CONTROLLED BY THE NATIONAL WEATHER SERVICE.
    USE DATA WITH CAUTION...ESPECIALLY DEWPOINT AND RELATIVE
    HUMIDITY OBSERVATIONS.

INZ001>003-010>013-019-020-260300-
NORTHWEST INDIANA

CITY           SKY/WX    TMP DP  RH WIND       PRES   REMARKS
GARY /AIRPORT/ PTCLDY    66  43  42 W21       30.10S
KNOX *+        CLOUDY    64  36  34 W12       30.08F
MICHIGAN CITY+ MOCLDY    64  52  63 W7        30.09R
MONTICELLO +   CLEAR     63  47  56 W6        30.11R

$$

LMZ046-743>745-260300-
SOUTHERN LAKE MICHIGAN

STATION/POSITION TIME  TEMP    WIND        PRES    WAVE
                       AIR SEA DIR/SP/G            HT
                 (UTC) (F)     (DEG/KT/KT) (MB)    (FT)
BURNS HARBOR     0140   67     270/ 20/ 23 1019.0R
MICHIGAN CITY    0130   66     270/ 16/ 17   N/A
5NW MICH CITY    0150   66 67  290/ 17/ 21   N/A     3

$$

INZ004-005-014>016-021>024-260300-
NORTH CENTRAL INDIANA

CITY           SKY/WX    TMP DP  RH WIND       PRES   REMARKS
GOSHEN         CLOUDY    64  47  53 W6        30.07S
PERU/GRISSOM   CLEAR     62  50  66 W6        30.07S
SOUTH BEND     LGT RAIN  62  51  67 W12G22    30.09R

$$

INZ006>009-017-018-025>027-260300-
NORTHEAST INDIANA

CITY           SKY/WX    TMP DP  RH WIND       PRES   REMARKS
FORT WAYNE     MOCLDY    65  48  54 W7        30.09S
KENDALLVILLE + CLOUDY    64  48  57 CALM      30.08S

$$

INZ028-029-035-036-043>045-051>053-260300-
WEST CENTRAL INDIANA

CITY           SKY/WX    TMP DP  RH WIND       PRES   REMARKS
CRAWFORDSVL +  CLEAR     60  49  67 W5        30.13S
GREENCASTLE +  PTCLDY    64  45  48 CALM      30.14R
LAFAYETTE      CLEAR     62  48  60 W8        30.11S
TERRE HAUTE    CLEAR     68  46  45 NW6       30.14R

$$

INZ030>032-037>040-046>048-054>057-064-065-260300-
CENTRAL INDIANA

CITY           SKY/WX    TMP DP  RH WIND       PRES   REMARKS
COLUMBUS       CLEAR     64  55  72 W5        30.13R
GREENWOOD *+   PTCLDY    66  46  47 W3        30.13R
INDIANAPOLIS   PTCLDY    65  49  56 W7        30.12R
-EAGLE CREEK   CLEAR     67  49  52 NW7       30.11S
KOKOMO +       PTCLDY    63  51  65 W7        30.11S
MT COMFORT *+  CLEAR     64  48  55 NW6       30.12S
SHELBYVILLE    PTCLDY    66  46  48 W6        30.11S

$$

INZ033-034-041-042-049-050-058-059-260300-
EAST CENTRAL INDIANA

CITY           SKY/WX    TMP DP  RH WIND       PRES   REMARKS
MUNCIE         CLEAR     65  49  56 CALM      30.11S
RICHMOND +     MOCLDY    61  54  77 CALM      30.13R

$$

INZ060-061-067>069-081>083-085>088-260300-
SOUTHWEST INDIANA

CITY           SKY/WX    TMP DP  RH WIND       PRES   REMARKS
EVANSVILLE     PTCLDY    73  48  41 W3        30.14R
HUNTINGBURG *+ CLEAR     68  51  54 NW3       30.14R

$$

INZ062-063-066-070>080-084-089>092-260300-
SOUTH CENTRAL AND SOUTHEAST INDIANA

CITY           SKY/WX    TMP DP  RH WIND       PRES   REMARKS
BLOOMINGTON    CLEAR     67  46  47 NW3       30.13S
MADISON *+     CLEAR     64  54  68 CALM      30.15R
SEYMOUR +      PTCLDY   N/A N/A N/A W3        30.12S

$$





USA.gov is the U.S. government's official web portal to all federal, state and local government web resources and services.